{"data":{"norad_id":67289,"intl_designator":"2025-313AT","name":"NASBSAT-1","alt_names":[],"object_type":"PAYLOAD","status":"ACTIVE","operator":null,"country":"BELA","launch_date":"2025-12-28","launch_site_code":"VOSTO","launch_vehicle":null,"mission":null,"orbit_class":"UNKNOWN","rcs_meters":null,"size_class":null,"mass_kg":null,"dimensions":null,"purposes":[],"wikipedia_slug":null,"has_3d_model":false,"image_url":null,"decayed_at":null,"tle_current":{"epoch":"2026-05-25T03:25:14.996352Z","epoch_age_seconds":76539,"freshness":"FRESH","line1":"1 67289U 25313AT  26145.14253468  .00012214  00000+0  48614-3 0  9992","line2":"2 67289  97.3941 220.5822 0010744  81.8233 278.4223 15.25349319 22474","mean_motion":15.25349319,"eccentricity":0.0010744,"inclination_deg":97.3941,"raan_deg":220.5822,"arg_perigee_deg":81.8233,"mean_anomaly_deg":278.4223,"bstar":0.00048614,"rev_number":2247,"period_min":94.404605034606,"perigee_km":482.35785268974,"apogee_km":497.11553968811,"semimajor_km":6867.8736961889,"source":"CELESTRAK","updated_at":"2026-05-25T13:38:06.855717Z"}}}